User: anonymous   Login
Location: San Pelegr�n
(42.1868°N, 0.0079°E)
Time: 00:35:43
(UTC+00:00)
Language:

Cosmos 2341 Rocket - Orbit

View from above orbital plane
View from above orbital plane
View from above satellite
View from above satellite

Ground track
Ground track

The orbit data is extracted from the following two-line orbital elements,

1 24773U 97017B   20091.74928727  .00000047  00000-0  34014-4 0  9992
2 24773  82.9235 338.6187 0024309 352.7710  64.1840 13.73642510150734
Epoch (UTC): 31 March 2020 17:58:58
Eccentricity: 0.0024309
inclination: 82.9235°
perigee height: 968 km
apogee height: 1004 km
right ascension of ascending node: 338.6187°
argument of perigee: 352.7710°
revolutions per day: 13.73642510
mean anomaly at epoch: 64.1840°
orbit number at epoch: 15073

The dashed part of the orbit path shows where the satellite is in the earth's shadow,  

DLR